Other Surface Observations
Issued by NWS

Current Version | Previous Version | Text Only | Print | Product List | Glossary On
Versions: 1 2 3 4 5 6 7 8 9 10 11 12 13 14 15 16 17 18 19 20 21 22 23 24 25 26 27 28 29 30 31 32 33 34 35 36 37 38 39 40 41 42 43 44 45 46 47 48 49 50
000
SXUS52 KTAE 031719
OSOTAE
OSOTAE
North Florida/South Alabama/Southwest Georgia Weather Roundup
National Weather Service Tallahassee Florida
1200 PM EST SAT DEC 03 2016

Note: "fair" indicates few or no clouds below 12,000 feet with no
significant weather and/or obstructions to visibility.

!FLZ017-115-028-034-025-031800
...North Florida...

CITY           SKY/WX    TMP DP  RH WIND       PRES   REMARKS
TALLAHASSEE    CLOUDY    63  35  35 E10       30.21F
APALACHICOLA   CLOUDY    64  41  42 E15G23    30.18F
PERRY          CLOUDY    62  37  38 E5        30.22F
CROSS CITY     SUNNY     66  41  39 E9        30.19F
JACKSONVILLE   PTSUNNY   66  47  50 NE14G20   30.21F
$$

!FLZ112-006-005-002-011-031800
...Florida Panhandle...

CITY           SKY/WX    TMP DP  RH WIND       PRES   REMARKS
MARIANNA       MOSUNNY   60  34  37 E9        30.21F
BONIFAY        CLOUDY    58  36  43 NE7       30.22F
PANAMA CITY NW FAIR      61  34  36 NE10      30.19F
TYNDALL AFB    CLOUDY    64  36  36 NE12G18   30.19F
TYND DRONE APT NOT AVBL
DE FUNIAK SPR  NOT AVBL
EGLIN AFB      PTSUNNY   60  33  36 E14G23    30.18F
DESTIN         CLOUDY    63  38  39 E10G18    30.18F
HURLBURT       PTSUNNY   61  32  33 E15       30.17F
CRESTVIEW      PTSUNNY   57  36  45 E6        30.21F
PENSACOLA      PTSUNNY   60  37  42 E10       30.18F
$$

!ALZ063-066-031800
...South Alabama...

CITY           SKY/WX    TMP DP  RH WIND       PRES   REMARKS
DOTHAN         CLOUDY    60  36  40 NE6       30.25F
OZARK CAIRNS   CLOUDY    57  37  47 NE5       30.20F
FT RUCKER HELI CLOUDY    59  35  40 E3        30.22F
RUCKER HELI 3  NOT AVBL
RUCKER HELI 2  CLOUDY    59  35  40 E6        30.22F
FLORALA APT    CLOUDY    57  37  47 E6        30.22F
ANDALUSIA      CLOUDY    60  35  39 E8        30.21F
TROY           CLOUDY    57  35  43 NE7       30.25F
EUFALA         PTSUNNY   62  31  31 NE6       30.22F
MOBILE         CLOUDY    62  35  36 E13       30.17F
$$

!GAZ120>161-031800
...Southwest and South Central Georgia...

CITY           SKY/WX    TMP DP  RH WIND       PRES   REMARKS
THOMASVILLE    PTSUNNY   61  37  41 NE8       30.23F
BAINBRIDGE     CLOUDY    59  36  41 E9        30.22F
MOODY AFB      CLOUDY    61  33  35 NE8       30.21F
VALDOSTA       CLOUDY    61  34  36 NE8       30.22F
MOULTRIE       CLOUDY    59  34  38 NE3       30.23F
BLAKELY        CLOUDY    63  32  31 CALM      30.23F
ALBANY         CLOUDY    60  34  37 E9        30.24F
TIFTON         FAIR      59  34  39 E3        30.23F
FITZGERALD     NOT AVBL
CORDELE        NOT AVBL
AMERICUS       FAIR      61  28  29 E7        30.25F
HOMERVILLE     FAIR      61  37  41 E3        30.24F
$$

!GMZ750-755-770-775-031800
...Coastal and Buoy Obs...

STATION/POSITION TIME  TEMP    WIND        PRES    VSBY  WAVE
                       AIR SEA DIR/SP/G                  HT/PER
                 (UTC) (F)     (DEG/KT/KT) (MB)    (MI)  (FT/S)
KEATON BEACH     1700   64      50/ 11/ 15 1021.9F
CEDAR KEY        1700   65      80/ 10/ 11 1021.7F
C TOWER          1700   63      80/ 21/ 23 1022.2F
APALACHICOLA BUO 1650   67 74   90/ 19/ 23 1020.3F         6/ 6
PANAMA CITY BUOY 1650   69 75              1020.3F         7/ 7
MOBILE BUOY      1700   72 76  110/ 21/ 27 1019.0
ORANGE BCH AL BU 1650   65 71   90/ 21/ 27 1021.1F         7/ 6
$$




USA.gov is the U.S. government's official web portal to all federal, state and local government web resources and services.